�������l�o���
Date,Time,MP-1(��Sv/h),MP-2(��Sv/h),MP-3(��Sv/h),MP-4(��Sv/h),MP-5(��Sv/h),MP-6(��Sv/h),MP-7(��Sv/h),MP-8(��Sv/h),����,����(m/s),���J
2020/09/19,00:00,0.674,0.963,0.613,1.185,0.850,0.390,0.677,0.637,�k�k��,1.7,��
2020/09/19,00:10,0.673,0.961,0.614,1.185,0.848,0.389,0.678,0.636,�k�k��,2.5,��
2020/09/19,00:20,0.674,0.961,0.613,1.182,0.849,0.389,0.679,0.635,�k�k��,2.0,��
2020/09/19,00:30,0.674,0.960,0.614,1.182,0.849,0.389,0.676,0.637,�k�k��,2.3,��
2020/09/19,00:40,0.673,0.960,0.616,1.184,0.850,0.388,0.677,0.638,�k,2.6,�L
2020/09/19,00:50,0.670,0.957,0.613,1.182,0.846,0.389,0.678,0.636,�k�k��,1.5,�L
2020/09/19,01:00,0.671,0.954,0.614,1.180,0.842,0.389,0.677,0.635,�k�k��,2.8,�L
2020/09/19,01:10,0.673,0.953,0.612,1.179,0.842,0.387,0.677,0.636,�k�k��,2.6,�L
2020/09/19,01:20,0.669,0.948,0.610,1.176,0.838,0.389,0.674,0.634,���쓌,4.1,�L
2020/09/19,01:30,0.664,0.941,0.609,1.167,0.831,0.385,0.669,0.631,�쓌,4.5,�L
2020/09/19,01:40,0.664,0.939,0.606,1.163,0.829,0.385,0.669,0.629,��,1.7,�L
2020/09/19,01:50,0.664,0.936,0.603,1.155,0.824,0.384,0.668,0.629,�k�k��,2.3,�L
2020/09/19,02:00,0.664,0.937,0.604,1.152,0.825,0.386,0.668,0.630,�k�k��,2.3,�L
2020/09/19,02:10,0.662,0.933,0.605,1.151,0.826,0.384,0.667,0.629,�k��,3.0,�L
2020/09/19,02:20,0.662,0.934,0.603,1.149,0.822,0.385,0.668,0.629,���k��,5.5,�L
2020/09/19,02:30,0.654,0.921,0.598,1.140,0.817,0.384,0.665,0.628,��,1.7,�L
2020/09/19,02:40,0.656,0.922,0.600,1.136,0.815,0.383,0.663,0.626,-,CALM,�L
2020/09/19,02:50,0.651,0.911,0.598,1.130,0.810,0.383,0.660,0.623,��,0.9,�L
2020/09/19,03:00,0.654,0.914,0.599,1.132,0.816,0.387,0.663,0.625,��,1.7,�L
2020/09/19,03:10,0.656,0.920,0.602,1.134,0.817,0.385,0.661,0.626,��,3.2,�L
2020/09/19,03:20,0.656,0.917,0.599,1.132,0.816,0.384,0.662,0.624,���k��,2.6,�L
2020/09/19,03:30,0.656,0.918,0.601,1.130,0.816,0.384,0.661,0.624,���k��,3.0,�L
2020/09/19,03:40,0.658,0.920,0.598,1.134,0.816,0.383,0.664,0.624,�k��,1.7,��
2020/09/19,03:50,0.655,0.921,0.599,1.134,0.818,0.383,0.663,0.624,�k�k��,1.7,��
2020/09/19,04:00,0.657,0.921,0.596,1.136,0.816,0.383,0.663,0.624,�k,0.9,�L
2020/09/19,04:10,0.655,0.924,0.599,1.135,0.816,0.383,0.660,0.626,�k�k��,1.4,�L
2020/09/19,04:20,0.654,0.920,0.598,1.135,0.819,0.381,0.663,0.626,�k�k��,3.0,��
2020/09/19,04:30,0.655,0.919,0.597,1.136,0.818,0.383,0.663,0.625,�k,3.0,��
2020/09/19,04:40,0.653,0.924,0.598,1.135,0.817,0.381,0.663,0.625,�k,2.9,��
2020/09/19,04:50,0.654,0.921,0.595,1.136,0.817,0.381,0.661,0.626,�k,2.0,��
2020/09/19,05:00,0.655,0.923,0.597,1.138,0.817,0.382,0.662,0.626,�k,2.3,��
2020/09/19,05:10,0.654,0.921,0.594,1.136,0.818,0.380,0.663,0.626,�k�k��,1.2,��
2020/09/19,05:20,0.652,0.923,0.597,1.137,0.818,0.381,0.663,0.626,�k�k��,1.4,�L
2020/09/19,05:30,0.656,0.923,0.598,1.137,0.818,0.381,0.662,0.629,�k��,0.9,�L
2020/09/19,05:40,0.654,0.922,0.596,1.136,0.819,0.381,0.664,0.626,-,CALM,��
2020/09/19,05:50,0.654,0.924,0.597,1.138,0.819,0.381,0.665,0.627,-,CALM,��
2020/09/19,06:00,0.654,0.924,0.596,1.138,0.818,0.381,0.664,0.628,�k�k��,0.9,��
2020/09/19,06:10,0.654,0.924,0.596,1.136,0.819,0.383,0.663,0.629,�k�k��,1.2,��
2020/09/19,06:20,0.655,0.923,0.596,1.139,0.819,0.381,0.663,0.628,�k�k��,0.9,��
2020/09/19,06:30,0.655,0.924,0.595,1.139,0.819,0.381,0.664,0.627,�k��,0.8,��
2020/09/19,06:40,0.655,0.923,0.597,1.135,0.819,0.380,0.664,0.628,�k�k��,1.2,��
2020/09/19,06:50,0.655,0.922,0.595,1.136,0.820,0.381,0.665,0.626,�k,0.8,��
2020/09/19,07:00,0.655,0.923,0.596,1.140,0.818,0.381,0.661,0.628,�k�k��,0.6,��
2020/09/19,07:10,0.653,0.923,0.595,1.138,0.818,0.381,0.664,0.627,�k��,0.9,��
2020/09/19,07:20,0.654,0.922,0.595,1.141,0.820,0.381,0.666,0.629,-,CALM,��
2020/09/19,07:30,0.655,0.924,0.593,1.140,0.817,0.381,0.664,0.627,���k��,0.6,��
2020/09/19,07:40,0.655,0.923,0.593,1.139,0.819,0.381,0.664,0.628,�k,0.6,��
2020/09/19,07:50,0.655,0.923,0.593,1.138,0.819,0.381,0.663,0.629,�k��,0.9,��
2020/09/19,08:00,0.655,0.924,0.594,1.139,0.821,0.380,0.664,0.628,���k��,1.1,��
2020/09/19,08:10,0.658,0.925,0.594,1.139,0.819,0.380,0.664,0.628,���k��,1.2,��
2020/09/19,08:20,0.654,0.923,0.592,1.138,0.822,0.382,0.663,0.628,�k�k��,0.9,��
2020/09/19,08:30,0.657,0.923,0.596,1.140,0.820,0.381,0.664,0.627,��,0.8,��
2020/09/19,08:40,0.653,0.926,0.596,1.138,0.821,0.381,0.666,0.628,���쓌,1.5,�L
2020/09/19,08:50,0.655,0.924,0.595,1.139,0.820,0.380,0.664,0.628,�쓌,1.4,�L
2020/09/19,09:00,0.656,0.926,0.596,1.138,0.819,0.379,0.664,0.627,��쓌,1.9,�L
2020/09/19,09:10,0.656,0.923,0.595,1.140,0.819,0.380,0.665,0.626,��쓌,2.6,��
2020/09/19,09:20,0.657,0.924,0.598,1.141,0.819,0.380,0.664,0.628,��쓌,2.3,��
2020/09/19,09:30,0.657,0.926,0.596,1.141,0.819,0.378,0.664,0.627,��쓌,3.1,��
2020/09/19,09:40,0.655,0.929,0.598,1.141,0.822,0.380,0.666,0.627,��쓌,4.0,��
2020/09/19,09:50,0.658,0.925,0.595,1.142,0.821,0.381,0.665,0.624,�쓌,4.4,��
2020/09/19,10:00,0.657,0.929,0.595,1.140,0.821,0.381,0.666,0.627,��쓌,4.9,��
2020/09/19,10:10,0.656,0.927,0.596,1.142,0.821,0.382,0.666,0.626,��쓌,3.7,��
2020/09/19,10:20,0.658,0.927,0.596,1.141,0.821,0.380,0.665,0.627,��쓌,2.8,��
2020/09/19,10:30,0.657,0.929,0.596,1.138,0.823,0.381,0.665,0.627,�쓌,3.9,��
2020/09/19,10:40,0.658,0.929,0.595,1.138,0.822,0.380,0.666,0.628,��쓌,3.7,��
2020/09/19,10:50,0.658,0.931,0.597,1.144,0.823,0.380,0.666,0.626,��쓌,3.1,��
2020/09/19,11:00,0.658,0.930,0.595,1.143,0.825,0.381,0.667,0.626,��쓌,2.0,��
2020/09/19,11:10,0.657,0.929,0.595,1.145,0.822,0.381,0.664,0.628,��쓌,2.2,�L
2020/09/19,11:20,0.657,0.928,0.597,1.140,0.822,0.380,0.668,0.626,�쓌,2.0,�L
2020/09/19,11:30,0.659,0.927,0.597,1.142,0.820,0.382,0.665,0.627,��,0.9,�L
2020/09/19,11:40,0.658,0.927,0.599,1.143,0.820,0.382,0.664,0.627,��쓌,1.5,�L
2020/09/19,11:50,0.658,0.927,0.600,1.143,0.821,0.382,0.665,0.626,�쓌,3.0,�L
2020/09/19,12:00,0.660,0.929,0.599,1.142,0.821,0.383,0.662,0.627,�쓌,2.3,��
2020/09/19,12:10,0.657,0.930,0.599,1.141,0.821,0.383,0.666,0.626,�쓌,2.6,��
2020/09/19,12:20,0.657,0.919,0.598,1.142,0.823,0.383,0.665,0.627,�쓌,2.5,��
2020/09/19,12:30,0.660,0.897,0.598,1.143,0.823,0.381,0.665,0.627,�쓌,2.9,��
2020/09/19,12:40,0.658,0.917,0.598,1.145,0.822,0.383,0.666,0.626,�쓌,2.5,��
2020/09/19,12:50,0.658,0.931,0.597,1.143,0.822,0.381,0.663,0.625,��쓌,3.6,��
2020/09/19,13:00,0.659,0.931,0.596,1.142,0.822,0.381,0.665,0.626,�쓌,2.5,��
2020/09/19,13:10,0.659,0.930,0.599,1.140,0.823,0.380,0.665,0.627,��쓌,2.2,��
2020/09/19,13:20,0.658,0.933,0.598,1.140,0.825,0.381,0.665,0.625,��쓌,2.3,��
2020/09/19,13:30,0.658,0.933,0.597,1.140,0.824,0.380,0.665,0.625,�쓌,1.9,��
2020/09/19,13:40,0.658,0.931,0.597,1.140,0.822,0.380,0.667,0.627,��쓌,1.9,��
2020/09/19,13:50,0.658,0.928,0.598,1.141,0.826,0.380,0.665,0.626,�쓌,1.7,��
2020/09/19,14:00,0.659,0.927,0.597,1.142,0.825,0.381,0.666,0.627,��쓌,1.7,��
2020/09/19,14:10,0.661,0.932,0.598,1.142,0.823,0.382,0.666,0.627,��쓌,1.2,��
2020/09/19,14:20,0.658,0.931,0.598,1.141,0.823,0.381,0.666,0.627,�쓌,2.0,��
2020/09/19,14:30,0.659,0.934,0.599,1.141,0.824,0.382,0.667,0.627,���쓌,1.2,��
2020/09/19,14:40,0.659,0.935,0.598,1.143,0.826,0.382,0.667,0.627,�쓌,2.3,��
2020/09/19,14:50,0.659,0.936,0.599,1.143,0.827,0.381,0.667,0.626,�쓌,2.6,��
2020/09/19,15:00,0.660,0.935,0.599,1.141,0.827,0.380,0.666,0.628,��쓌,3.4,��
2020/09/19,15:10,0.658,0.936,0.598,1.145,0.827,0.383,0.666,0.627,��쓌,3.8,��
2020/09/19,15:20,0.659,0.935,0.598,1.145,0.824,0.382,0.666,0.628,��쓌,3.7,��
2020/09/19,15:30,0.659,0.935,0.599,1.143,0.824,0.382,0.666,0.627,��쓌,4.7,��
2020/09/19,15:40,0.659,0.937,0.598,1.145,0.824,0.380,0.666,0.626,��쓌,4.1,��
2020/09/19,15:50,0.661,0.934,0.598,1.146,0.825,0.383,0.666,0.627,��쓌,4.6,��
2020/09/19,16:00,0.659,0.937,0.599,1.146,0.824,0.380,0.667,0.629,��쓌,4.4,��
2020/09/19,16:10,0.661,0.937,0.599,1.146,0.826,0.381,0.665,0.626,��쓌,3.6,��
2020/09/19,16:20,0.660,0.937,0.600,1.147,0.826,0.380,0.667,0.627,��쓌,4.2,��
2020/09/19,16:30,0.659,0.936,0.601,1.147,0.827,0.381,0.666,0.628,��,3.2,��
2020/09/19,16:40,0.659,0.938,0.602,1.147,0.825,0.381,0.667,0.628,��쓌,3.7,��
2020/09/19,16:50,0.658,0.937,0.602,1.148,0.826,0.381,0.668,0.628,��,3.4,��
2020/09/19,17:00,0.660,0.936,0.601,1.147,0.825,0.381,0.667,0.628,��쓌,3.2,��
2020/09/19,17:10,0.661,0.939,0.601,1.148,0.826,0.380,0.668,0.628,��쓌,3.9,��
2020/09/19,17:20,0.659,0.938,0.600,1.148,0.827,0.380,0.667,0.629,��쓌,3.9,��
2020/09/19,17:30,0.662,0.937,0.602,1.147,0.828,0.381,0.668,0.629,��쓌,3.1,��
2020/09/19,17:40,0.661,0.938,0.602,1.146,0.826,0.380,0.667,0.630,��,3.3,��
2020/09/19,17:50,0.660,0.940,0.601,1.147,0.827,0.380,0.668,0.629,��,3.4,��
2020/09/19,18:00,0.660,0.939,0.602,1.152,0.827,0.383,0.667,0.629,��,3.2,��
2020/09/19,18:10,0.661,0.940,0.601,1.150,0.828,0.380,0.668,0.630,��쓌,2.5,��
2020/09/19,18:20,0.659,0.940,0.602,1.148,0.828,0.382,0.669,0.630,��쓌,3.1,��
2020/09/19,18:30,0.661,0.941,0.603,1.149,0.828,0.383,0.668,0.628,��,2.5,��
2020/09/19,18:40,0.661,0.939,0.603,1.148,0.830,0.382,0.668,0.628,��,2.9,��
2020/09/19,18:50,0.661,0.941,0.601,1.148,0.828,0.383,0.670,0.630,��쐼,0.9,��
2020/09/19,19:00,0.663,0.941,0.602,1.149,0.830,0.382,0.668,0.630,��쐼,1.9,��
2020/09/19,19:10,0.660,0.940,0.603,1.150,0.829,0.383,0.669,0.629,��,1.1,��
2020/09/19,19:20,0.663,0.938,0.602,1.148,0.828,0.382,0.670,0.629,��,2.0,��
2020/09/19,19:30,0.662,0.940,0.603,1.150,0.830,0.381,0.668,0.630,��,1.7,��
2020/09/19,19:40,0.662,0.939,0.602,1.149,0.830,0.383,0.668,0.631,��쐼,0.9,��
2020/09/19,19:50,0.661,0.939,0.602,1.150,0.828,0.383,0.668,0.630,��쐼,1.2,��
2020/09/19,20:00,0.661,0.938,0.601,1.149,0.828,0.384,0.671,0.631,��,2.0,��
2020/09/19,20:10,0.661,0.939,0.602,1.148,0.829,0.383,0.670,0.629,��쐼,1.9,��
2020/09/19,20:20,0.663,0.941,0.601,1.150,0.829,0.384,0.669,0.630,��쐼,2.8,��
2020/09/19,20:30,0.661,0.941,0.600,1.150,0.830,0.385,0.669,0.629,��쐼,3.4,��
2020/09/19,20:40,0.663,0.942,0.602,1.149,0.830,0.384,0.670,0.629,��쐼,3.0,��
2020/09/19,20:50,0.664,0.941,0.603,1.151,0.829,0.383,0.669,0.630,��쐼,2.6,��
2020/09/19,21:00,0.662,0.939,0.602,1.153,0.831,0.383,0.668,0.630,�쐼,2.6,��
2020/09/19,21:10,0.662,0.940,0.603,1.150,0.830,0.383,0.668,0.630,�쐼,2.3,��
2020/09/19,21:20,0.664,0.941,0.603,1.151,0.829,0.385,0.671,0.630,�쐼,2.6,��
2020/09/19,21:30,0.664,0.942,0.602,1.151,0.830,0.385,0.669,0.630,�쐼,3.1,��
2020/09/19,21:40,0.664,0.940,0.604,1.151,0.830,0.382,0.670,0.630,���쐼,2.5,��
2020/09/19,21:50,0.664,0.941,0.603,1.152,0.831,0.384,0.670,0.629,���쐼,2.3,��
2020/09/19,22:00,0.664,0.940,0.603,1.152,0.830,0.383,0.669,0.630,��,1.9,��
2020/09/19,22:10,0.664,0.939,0.605,1.152,0.829,0.383,0.667,0.630,��,1.1,��
2020/09/19,22:20,0.664,0.937,0.603,1.151,0.831,0.383,0.670,0.631,���k��,1.4,��
2020/09/19,22:30,0.664,0.939,0.603,1.151,0.831,0.384,0.669,0.630,���쓌,0.9,��
2020/09/19,22:40,0.662,0.941,0.604,1.151,0.830,0.383,0.669,0.630,��쐼,0.9,��
2020/09/19,22:50,0.666,0.940,0.602,1.153,0.832,0.384,0.669,0.631,��쐼,1.5,��
2020/09/19,23:00,0.664,0.938,0.604,1.152,0.830,0.385,0.670,0.630,�쐼,2.0,��
2020/09/19,23:10,0.664,0.941,0.603,1.151,0.829,0.385,0.669,0.630,���쐼,2.0,��
2020/09/19,23:20,0.664,0.939,0.604,1.151,0.830,0.385,0.669,0.632,�쐼,3.5,��
2020/09/19,23:30,0.665,0.940,0.602,1.153,0.830,0.383,0.668,0.631,�쐼,4.0,��
2020/09/19,23:40,0.663,0.940,0.604,1.153,0.831,0.384,0.669,0.632,�쐼,2.3,��
2020/09/19,23:50,0.663,0.940,0.605,1.153,0.831,0.384,0.669,0.631,�쐼,3.0,��
